Overview Statistics Trail Chart Weather Telemetry Raw packets
 

This is the latest recevied weather packets stored in our database for station/object I8ZSE-10. If no packets are shown the sender has not sent any weather packets the latest 10 day(s).

<< 1 2 3 4 5 6 >>
Time Temp. Humidity Pressure Rain* Wind** Luminosity Snow
1788645930 23.33° C 50% - 0 mm - - -
1788645330 23.33° C 50% - 0 mm - - -
1788644730 23.33° C 51% - 0 mm - - -
1788644130 23.89° C 51% - 0 mm - - -
1788643530 23.89° C 50% - 0 mm - - -
1788642953 23.89° C 51% - 0 mm - - -
1788642330 23.33° C 54% - 0 mm - - -
1788641730 23.33° C 54% - 0 mm - - -
1788641130 23.89° C 51% - 0 mm - - -
1788640530 23.33° C 52% - 0 mm - - -
1788639930 23.89° C 51% - 0 mm - - -
1788639330 24.44° C 48% - 0 mm - - -
1788638730 25.56° C 47% - 0 mm - - -
1788638130 25° C 47% - 0 mm - - -
1788637530 25° C 48% - 0 mm - - -
1788636930 25.56° C 47% - 0 mm - - -
1788636330 25.56° C 46% - 0 mm - - -
1788635730 25.56° C 47% - 0 mm - - -
1788635142 25.56° C 47% - 0 mm - - -
1788634530 25.56° C 47% - 0 mm - - -
1788633930 26.11° C 47% - 0 mm - - -
1788633330 26.11° C 46% - 0 mm - - -
1788632730 26.11° C 46% - 0 mm - - -
1788632130 26.11° C 46% - 0 mm - - -
1788631530 26.11° C 44% - 0 mm - - -

* Rain latest hour (hover to see other rain measurements)
** Current wind speed in m/s (hover to see current wind gust speed)